Date String (YYYY-MM-DD hh:mm:ss) UTC,Instrument flags,Ambient pressure (hPa),Sample flow (lpm),Bypass flow (lpm),Sample temperature (°C),Ambient temperature (°C),ASC tube jacket temperature (°C),LED temperature (°C),Box temperature (°C),Sample RH (%),Span deviation,Mass concentration (μg/m³),Mass concentration (μg/m³),Mass concentration (μg/m³)
DateTimeUTC,F1_M11,P_M11,Q1_M11,Q2_M11,T1_M11,T2_M11,T3_M11,T4_M11,T5_M11,U1_M11,ZSPAN_M11,X0_M11,X2_M11,X1_M11
2022-10-17 23:00:00,,0830.9,5.01,0.00,30.5,29.3,00.0,39.2,32.3,12.1,0000.0,0017.47,0007.33,0006.44
2022-10-17 23:01:00,,0830.9,4.99,0.00,30.5,29.3,00.0,39.2,32.3,11.9,0000.0,0017.10,0007.27,0006.42
2022-10-17 23:02:00,,0830.9,4.99,0.00,30.5,29.3,00.0,39.2,32.3,11.9,0000.0,0017.45,0007.22,0006.41
2022-10-17 23:03:00,,0830.9,5.01,0.00,30.5,29.2,00.0,39.2,32.3,11.8,0000.0,0017.35,0007.25,0006.42
2022-10-17 23:04:00,,0830.9,5.00,0.00,30.5,29.2,00.0,39.2,32.3,11.8,0000.0,0017.50,0007.29,0006.43
2022-10-17 23:05:00,,0830.9,4.99,0.00,30.5,29.2,00.0,39.2,32.3,11.7,0000.0,0016.98,0007.25,0006.42
2022-10-17 23:06:00,,0830.9,4.99,0.00,30.5,29.3,00.0,39.2,32.4,11.8,0001.8,0016.18,0007.22,0006.39
2022-10-17 23:07:00,,0831.0,5.01,0.00,30.5,29.3,00.0,39.3,32.4,11.7,0004.1,0014.96,0007.24,0006.40
2022-10-17 23:08:00,,0830.9,5.01,0.00,30.5,29.3,00.0,39.3,32.4,11.7,0004.4,0014.90,0007.27,0006.39
2022-10-17 23:09:00,,0830.9,5.00,0.00,30.6,29.3,00.0,39.3,32.4,11.8,0004.8,0014.67,0007.25,0006.36
2022-10-17 23:10:00,,0830.9,4.99,0.00,30.6,29.3,00.0,39.3,32.4,11.8,0004.9,0015.18,0007.25,0006.35
2022-10-17 23:11:00,,0831.0,4.99,0.00,30.6,29.3,00.0,39.3,32.4,11.7,0004.7,0014.93,0007.29,0006.36
2022-10-17 23:12:00,,0831.0,5.00,0.00,30.6,29.3,00.0,39.3,32.4,11.7,0004.4,0014.75,0007.32,0006.36
2022-10-17 23:13:00,,0830.9,5.00,0.00,30.6,29.3,00.0,39.3,32.4,11.7,0004.4,0014.07,0007.32,0006.36
2022-10-17 23:14:00,,0830.9,5.00,0.00,30.6,29.3,00.0,39.3,32.4,11.7,0003.8,0015.69,0007.31,0006.37
2022-10-17 23:15:00,,0830.9,5.00,0.00,30.6,28.1,00.0,39.3,32.3,11.7,0003.6,0016.00,0007.32,0006.36
2022-10-17 23:16:00,,0830.9,5.01,0.00,30.5,26.6,00.0,39.2,32.0,11.7,0003.1,0016.53,0007.36,0006.38
2022-10-17 23:17:00,,0830.9,5.01,0.00,30.4,26.3,00.0,39.2,32.0,11.8,0002.6,0017.27,0007.36,0006.39
2022-10-17 23:18:00,,0830.9,4.99,0.00,30.3,26.5,00.0,39.1,31.7,11.8,0002.2,0017.02,0007.32,0006.37
2022-10-17 23:19:00,,0830.9,4.99,0.00,30.2,26.9,00.0,39.1,31.7,11.9,0002.2,0016.85,0007.24,0006.35
2022-10-17 23:20:00,,0830.9,5.01,0.00,30.1,27.3,00.0,39.0,31.7,12.0,0002.2,0016.49,0007.22,0006.34
2022-10-17 23:21:00,,0830.9,5.01,0.00,30.1,27.6,00.0,39.0,31.7,12.0,0002.5,0016.67,0007.23,0006.32
2022-10-17 23:22:00,,0830.9,5.00,0.00,30.1,27.9,00.0,39.0,31.8,12.0,0002.5,0017.37,0007.23,0006.29
2022-10-17 23:23:00,,0830.9,5.00,0.00,30.1,28.1,00.0,38.9,31.8,12.0,0002.6,0017.44,0007.23,0006.28
2022-10-17 23:24:00,,0830.9,5.00,0.00,30.1,28.3,00.0,38.9,31.8,12.0,0003.0,0018.29,0007.23,0006.26
2022-10-17 23:25:00,,0830.9,5.00,0.00,30.1,28.4,00.0,38.9,31.9,12.0,0003.8,0016.95,0007.19,0006.22
2022-10-17 23:26:00,,0830.9,5.00,0.00,30.1,28.6,00.0,38.9,31.9,12.0,0004.0,0016.87,0007.21,0006.19
2022-10-17 23:27:00,,0830.9,5.00,0.00,30.1,28.6,00.0,38.9,31.9,12.1,0003.8,0016.28,0007.18,0006.17
2022-10-17 23:28:00,,0830.9,5.00,0.00,30.1,28.7,00.0,38.9,31.9,12.1,0003.8,0016.32,0007.22,0006.15
2022-10-17 23:29:00,,0830.9,4.99,0.00,30.1,28.8,00.0,38.9,32.0,12.1,0003.9,0016.34,0007.23,0006.12
2022-10-17 23:30:00,,0830.9,5.00,0.00,30.1,28.8,00.0,38.9,32.0,12.0,0000.3,0016.40,0007.26,0006.11
2022-10-17 23:31:00,,0830.9,5.00,0.00,30.2,28.9,00.0,38.9,32.0,12.0,0003.8,0016.38,0007.23,0006.10
2022-10-17 23:32:00,,0830.9,5.01,0.00,30.2,29.0,00.0,38.9,32.0,12.0,0003.7,0016.65,0007.22,0006.10
2022-10-17 23:33:00,,0830.9,5.01,0.00,30.2,29.0,00.0,38.9,32.1,12.0,0003.8,0016.53,0007.18,0006.10
2022-10-17 23:34:00,,0830.9,5.01,0.00,30.2,29.0,00.0,39.0,32.1,11.9,0004.0,0016.74,0007.15,0006.09
2022-10-17 23:35:00,,0830.9,4.98,0.00,30.2,29.1,00.0,39.0,32.1,11.8,0003.8,0016.18,0007.13,0006.08
2022-10-17 23:36:00,,0830.9,5.00,0.00,30.3,29.1,00.0,39.0,32.1,11.8,0003.0,0015.93,0007.12,0006.09
2022-10-17 23:37:00,,0830.9,5.00,0.00,30.3,29.1,00.0,39.0,32.1,11.8,0002.5,0016.32,0007.06,0006.07
2022-10-17 23:38:00,,0830.9,5.01,0.00,30.3,29.1,00.0,39.0,32.1,11.8,0001.0,0016.49,0007.05,0006.05
2022-10-17 23:39:00,,0830.9,5.00,0.00,30.3,29.2,00.0,39.0,32.1,11.8,0001.1,0016.66,0006.99,0006.05
2022-10-17 23:40:00,,0830.9,5.00,0.00,30.3,29.2,00.0,39.0,32.2,11.9,0000.4,0016.73,0007.00,0006.05
2022-10-17 23:41:00,,0830.9,4.99,0.00,30.4,29.2,00.0,39.1,32.2,11.9,0000.6,0017.55,0007.02,0006.05
2022-10-17 23:42:00,,0830.9,5.00,0.00,30.4,29.2,00.0,39.1,32.2,11.9,0000.2,0017.80,0007.03,0006.05
2022-10-17 23:43:00,,0830.9,4.99,0.00,30.4,29.2,00.0,39.1,32.2,11.8,0000.3,0017.04,0007.05,0006.05
2022-10-17 23:44:00,,0830.9,5.00,0.00,30.4,29.3,00.0,39.1,32.2,11.9,0000.0,0016.59,0007.04,0006.06
2022-10-17 23:45:00,,0830.9,5.01,0.00,30.4,29.3,00.0,39.1,32.3,11.9,0000.0,0017.10,0007.06,0006.06
2022-10-17 23:46:00,,0830.9,5.01,0.00,30.4,29.3,00.0,39.1,32.3,11.9,0000.0,0016.99,0007.09,0006.07
2022-10-17 23:47:00,,0830.9,5.00,0.00,30.5,29.3,00.0,39.2,32.3,11.9,0000.0,0017.31,0007.11,0006.06
2022-10-17 23:48:00,,0830.9,4.99,0.00,30.5,29.3,00.0,39.2,32.3,11.9,0000.0,0016.59,0007.10,0006.05
2022-10-17 23:49:00,,0831.0,5.00,0.00,30.5,29.3,00.0,39.2,32.3,11.9,0001.2,0016.96,0007.13,0006.06
2022-10-17 23:50:00,,0831.0,5.01,0.00,30.5,29.3,00.0,39.2,32.3,11.9,0000.4,0016.55,0007.20,0006.08
2022-10-17 23:51:00,,0831.0,5.01,0.00,30.5,29.3,00.0,39.2,32.4,11.9,0000.5,0017.14,0007.25,0006.10
2022-10-17 23:52:00,,0831.0,4.99,0.00,30.5,29.3,00.0,39.2,32.4,12.0,0001.1,0016.90,0007.28,0006.15
2022-10-17 23:53:00,,0831.0,5.00,0.00,30.6,29.4,00.0,39.3,32.4,12.0,0002.2,0016.66,0007.35,0006.18
2022-10-17 23:54:00,,0831.0,5.00,0.00,30.6,29.4,00.0,39.3,32.4,12.0,0001.1,0016.24,0007.41,0006.21
2022-10-17 23:55:00,,0831.0,5.00,0.00,30.6,29.4,00.0,39.3,32.4,12.0,0002.9,0016.41,0007.46,0006.24
2022-10-17 23:56:00,,0831.0,5.00,0.00,30.6,29.4,00.0,39.3,32.4,11.9,0003.2,0015.97,0007.56,0006.30
2022-10-17 23:57:00,,0831.0,4.99,0.00,30.6,29.4,00.0,39.3,32.4,11.9,0003.5,0016.23,0007.61,0006.36
2022-10-17 23:58:00,,0831.0,4.99,0.00,30.6,29.4,00.0,39.3,32.4,11.9,0002.5,0016.72,0007.70,0006.43
2022-10-17 23:59:00,,0831.1,5.00,0.00,30.6,29.4,00.0,39.3,32.5,11.9,0001.4,0016.68,0007.77,0006.52
